Powrót do katalogu

STARLINK-1583

AktywnyŁącznośćVLEO
NORAD 46064·PAYLOAD·🇺🇸 United States

Wystrzelony Aug 7, 2020 z Cape Canaveral Space Force Station

Loading…

Następne Przeloty (najbliższe 24 godziny)

TLE

ŚwieżeSource: CelesTrak SupGP

Epoka: Sep 14, 2026, 21:07 UTC

1 46064C 20055AP  26257.88034722 -.00013712  00000+0 -44099-3 0  2579
2 46064  53.1584 313.9336 0001314  83.8803 340.4460 15.31706462    12

Śledź STARLINK-1583 w czasie rzeczywistym z AllMySat

Download on the App Store